User: anonymous
Location: NJAA Observatory
(40.6819°N, 74.8979°W)
Time: 17:24:54
(UTC-04:00)
Language:

Cosmos 2237 Rocket - Orbit

View from above orbital plane
View from above orbital plane
View from above satellite
View from above satellite

Ground track
Ground track

The orbit data is extracted from the following two-line orbital elements,

1 22566U 93016B   14110.07552612  .00000358  00000-0  20995-3 0   372
2 22566 071.0086 329.2741 0008280 087.8553 272.3517 14.14835139 88021
Epoch (UTC): 20 April 2014 01:48:45
Eccentricity: 0.0008280
inclination: 71.0086°
perigee height: 837 km
apogee height: 849 km
right ascension of ascending node: 329.2741°
argument of perigee: 87.8553°
revolutions per day: 14.14835139
mean anomaly at epoch: 272.3517°
orbit number at epoch: 8802

The dashed part of the orbit path shows where the satellite is in the earth's shadow,  

DLR